Regional Weather Roundup
Issued by NWS Kansas City/Pleasant Hill, MO

Home | Current Version | Previous Version | Graphics & Text | Print | Product List | Glossary Off
Versions: 1 2 3 4 5 6 7 8 9 10 11 12 13 14 15 16 17 18 19 20 21 22 23 24 25 26 27 28 29 30 31 32 33 34 35 36 37 38 39 40 41 42 43 44 45 46 47 48 49 50

000
ASUS43 KEAX 250511
RWREAX

WEATHER ROUNDUP FOR EASTERN KANSAS AND NORTHWEST MISSOURI
NATIONAL WEATHER SERVICE KANSAS CITY/PLEASANT HILL MO
1100 PM CST SAT JAN 24 2015

KSZ040-057-103>105-MOZ028-029-037-043-250600-
...KANSAS CITY METROPOLITAN AREA...

CITY           SKY/WX    TMP DP  RH WIND       PRES   REMARKS
K.C. INTL      LGT RAIN  45  42  89 SW7       29.67F
K.C. DOWNTOWN  LGT RAIN  48  42  80 SW6       29.69F
LEES SUMMIT    LGT RAIN  46  43  89 SW7       29.70F
OLATHE - IXD   CLOUDY    45  43  93 SW12      29.71F
OLATHE - OJC   CLOUDY    46  43  89 SW6       29.70F
LAWRENCE       CLOUDY    47  41  80 W8        29.70F

$$

MOZ001>008-011>017-020>025-030>033-038>040-044>046-053-054-250600-
...NORTHERN AND CENTRAL MISSOURI...

CITY           SKY/WX    TMP DP  RH WIND       PRES   REMARKS
ST. JOSEPH     LGT RAIN  42  40  92 SW6       29.66F
MOSBY          RAIN      46  41  81 W7        29.68F
WARRENSBURG    RAIN      46  43  87 SW10      29.72R
WHITEMAN AFB   LGT RAIN  50  41  72 W20       29.70R
CLINTON        LGT RAIN  48  41  76 W12       29.75S
SEDALIA        CLOUDY    52  32  46 W17G26    29.70S
WARSAW         NOT AVBL
MARSHALL       CLOUDY    50  36  57 SW12      29.68F
CHILLICOTHE      N/A     50  33  52 W7        29.65F
MOBERLY        CLOUDY    46  32  57 SW9       29.65F
KIRKSVILLE     CLOUDY    46  30  53 SW7       29.62F

$$

MOZ041-047>049-056>058-063>065-088>090-097-250600-
...EASTERN AND SOUTHERN MISSOURI...

CITY           SKY/WX    TMP DP  RH WIND       PRES   REMARKS
ST. LOUIS INTL CLOUDY    51  31  46 SW12      29.70F
SPIRIT OF STL  CLOUDY    51  31  46 SW12      29.69F
COLUMBIA       CLOUDY    46  34  62 SW10      29.67F
JEFFERSON CITY CLOUDY    52  32  46 SW9       29.69F
MEXICO         CLOUDY    48  37  66 SW9       29.66F
HANNIBAL       CLOUDY    48  30  49 SW7       29.64F
ROLLA          CLOUDY    48  31  51 SW14      29.70F
LEBANON        CLOUDY    50  32  50 SW12G20   29.74F
OSAGE BEACH    CLOUDY    54  30  40 SW10G20   29.71F
SPRINGFIELD    CLOUDY    50  32  50 SW16      29.77F
BRANSON        CLOUDY    48  32  53 SW9G17    29.82F
NEVADA         LGT RAIN  52  32  46 CALM      29.78R
JOPLIN         CLOUDY    53  31  42 SW20G26   29.78F
WEST PLAINS    MOCLDY    46  30  53 SW9       29.81F

$$

IAZ060-094-KSZ022-034>040-054-083-096-NEZ052-066-093-250600-
...KANSAS...SOUTHEAST NEBRASKA AND IOWA...

CITY           SKY/WX    TMP DP  RH WIND       PRES   REMARKS
TOPEKA         CLOUDY    50  39  66 W8        29.71F
MANHATTAN      CLOUDY    48  39  71 W8        29.71F
EMPORIA        CLOUDY    46  39  76 W6        29.73F
CHANUTE        CLOUDY    51  35  54 SW5       29.77F
WICHITA        CLOUDY    53  31  42 W13       29.80F
OMAHA          CLOUDY    46  40  79 NW9       29.59F
LINCOLN        MOCLDY    48  39  71 NW17      29.67R
FALLS CITY     LGT RAIN  45  41  86 W12       29.65F
LAMONI         CLOUDY    43  34  70 SW9       29.59F
DES MOINES     LGT RAIN  43  36  76 SW3       29.57F

$$




USA.gov is the U.S. government's official web portal to all federal, state and local government web resources and services.